Regional Weather Roundup
Issued by NWS

Home | Current Version | Previous Version | Text Only | Print | Product List | Glossary On
Versions: 1 2 3 4 5 6 7 8 9 10 11 12 13 14 15 16 17 18 19 20 21 22 23 24 25 26 27
000
ASUS45 KCYS 260810
RWRWY

WYOMING REGIONAL WEATHER ROUNDUP
NATIONAL WEATHER SERVICE CHEYENNE WY
200 AM MDT MON SEP 26 2016

NOTE:  "FAIR" INDICATES FEW OR NO CLOUDS BELOW 12,000 FEET
WITH NO SIGNIFICANT WEATHER AND/OR OBSTRUCTIONS TO VISIBILITY.

WYZ001-260900-
YELLOWSTONE NATIONAL PARK

CITY           SKY/WX    TMP DP  RH WIND       PRES   REMARKS
LK YELLOWSTONE   N/A     31  30  96 NW3       30.57F
W YELLOWSTONE  NOT AVBL

$$
WYZ002>013-054>058-071-098>099-260900-
NORTHERN WYOMING

CITY           SKY/WX    TMP DP  RH WIND       PRES   REMARKS
JACKSON        FAIR      37  36  93 CALM      30.52S
CODY           FAIR      43  39  87 S3        30.40F
GREYBULL       FAIR      46  43  89 S3        30.37F
WORLAND        FAIR      43  41  93 S7        30.38S
SHERIDAN       FAIR      43  38  82 SW5       30.33S
BUFFALO        FAIR      49  37  63 SW7       30.38S
GILLETTE       FAIR      47  39  74 CALM      30.34F
HULETT         FAIR      43  36  75 SW8       30.35S
NEWCASTLE      FAIR      39  34  81 NE5       30.37S

$$
WYZ014>020-022>026-101>103-260900-
CENTRAL WYOMING

CITY           SKY/WX    TMP DP  RH WIND       PRES   REMARKS
BIG PINEY      FAIR      46  35  65 N7        30.49S
PINEDALE       FAIR      43  34  70 NE7       30.50R
DUBOIS         FAIR      43  34  70 NW9       30.48F
LANDER         FAIR      47  40  76 E3        30.40F
RIVERTON       FAIR      45  39  79 NW3       30.42F
CASPER         FAIR      41  37  86 NW5       30.41R
DOUGLAS        FAIR      39  35  86 CALM      30.41R

$$
WYZ021-027>030-104>119-260900-
SOUTHERN WYOMING

CITY           SKY/WX    TMP DP  RH WIND       PRES   REMARKS
EVANSTON       FAIR      46  33  60 N3        30.52F
FORT BRIDGER   FAIR      47  35  63 W8        30.54S
ROCK SPRINGS   FAIR      44  35  70 W10       30.49S
DIXON          FAIR      39  33  81 E7        30.54S WCI  34
RAWLINS        FAIR      37  31  78 CALM      30.48F
SARATOGA       FAIR      34  32  93 S9        30.52S WCI  26
LARAMIE        FAIR      35  31  85 SW7       30.48F WCI  29
CHEYENNE       FAIR      45  33  63 W12       30.45F
TORRINGTON     FAIR      41  36  82 NE3       30.37F
PINE BLUFFS    FAIR      37  34  87 MISG      30.43S

$$




USA.gov is the U.S. government's official web portal to all federal, state and local government web resources and services.